Location: Dal�� Lhota
(48.7500°N, 14.0167°E)
Time: 17:39:41
(UTC+00:00)

Explorer 7 - Pass Details

Date: 03 August 2021
Orbit: 484 x 676 km, 50.3° (Epoch: 20 September)

Event Time Altitude Azimuth Distance (km) Brightness Sun altitude
Rises 07:04:55 0° 282° (WNW) 2,617 9.7 31.8°
Reaches altitude 10° 07:07:04 10° 284° (WNW) 1,754 9.0 32.2°
Maximum altitude 07:11:03 81° 12° (NNE) 553 7.4 32.8°
Drops below altitude 10° 07:15:17 10° 100° (E) 1,863 11.0 33.5°
Sets 07:17:37 0° 101° (ESE) 2,795 11.5 33.9°
